Year,Month,Day,Hour,Minute,Value (Times are PST for temperature in C)
2015,01,16,10,04,6.70
2015,01,16,10,05,6.70
2015,01,16,10,06,6.80
2015,01,16,10,07,6.80
2015,01,16,10,08,6.90
2015,01,16,10,09,7.00
2015,01,16,10,10,7.00
2015,01,16,10,11,7.10
2015,01,16,10,12,7.20
2015,01,16,10,13,7.20
2015,01,16,10,14,7.20
2015,01,16,10,15,7.30
2015,01,16,10,16,7.30
2015,01,16,10,17,7.30
2015,01,16,10,18,7.30
2015,01,16,10,19,7.40
2015,01,16,10,20,7.40
2015,01,16,10,21,7.40
2015,01,16,10,22,7.50
2015,01,16,10,23,7.60
2015,01,16,10,24,7.60
2015,01,16,10,25,7.60
2015,01,16,10,26,7.70
2015,01,16,10,27,7.80
2015,01,16,10,28,7.90
2015,01,16,10,29,8.00
2015,01,16,10,30,8.10
2015,01,16,10,31,8.20
2015,01,16,10,32,8.30
2015,01,16,10,33,8.30
2015,01,16,10,34,8.40
2015,01,16,10,35,8.40
2015,01,16,10,36,8.50
2015,01,16,10,37,8.50
2015,01,16,10,38,8.50
2015,01,16,10,39,8.50
2015,01,16,10,40,8.50
2015,01,16,10,41,8.60
2015,01,16,10,42,8.60
2015,01,16,10,43,8.70
2015,01,16,10,44,8.70
2015,01,16,10,45,8.80
2015,01,16,10,46,8.80
2015,01,16,10,47,8.80
2015,01,16,10,48,8.90
2015,01,16,10,49,8.90
2015,01,16,10,50,8.90
2015,01,16,10,51,9.00
2015,01,16,10,52,9.10
2015,01,16,10,53,9.10
2015,01,16,10,54,9.20
2015,01,16,10,55,9.20
2015,01,16,10,56,9.20
2015,01,16,10,57,9.20
2015,01,16,10,58,9.20
2015,01,16,10,59,9.20
2015,01,16,11,00,9.20
2015,01,16,11,01,9.20
2015,01,16,11,02,9.30
2015,01,16,11,03,9.20
2015,01,16,11,04,9.20
2015,01,16,11,05,9.20
2015,01,16,11,06,9.20
2015,01,16,11,07,9.20
2015,01,16,11,08,9.20
2015,01,16,11,09,9.20
2015,01,16,11,10,9.20
2015,01,16,11,11,9.20
2015,01,16,11,12,9.20
2015,01,16,11,13,9.30
2015,01,16,11,14,9.30
2015,01,16,11,15,9.30
2015,01,16,11,16,9.40
2015,01,16,11,17,9.40
2015,01,16,11,18,9.30
2015,01,16,11,19,9.30
2015,01,16,11,20,9.30
2015,01,16,11,21,9.30
2015,01,16,11,22,9.30
2015,01,16,11,23,9.30
2015,01,16,11,24,9.30
2015,01,16,11,25,9.30
2015,01,16,11,26,9.20
2015,01,16,11,27,9.20
2015,01,16,11,28,9.20
2015,01,16,11,29,9.20
2015,01,16,11,30,9.20
2015,01,16,11,31,9.20
2015,01,16,11,32,9.20
2015,01,16,11,33,9.20
2015,01,16,11,34,9.20
2015,01,16,11,35,9.20
2015,01,16,11,36,9.20
2015,01,16,11,37,9.20
2015,01,16,11,38,9.20
2015,01,16,11,39,9.20
2015,01,16,11,40,9.20
2015,01,16,11,41,9.20
2015,01,16,11,42,9.20
2015,01,16,11,43,9.10
2015,01,16,11,44,9.10
2015,01,16,11,45,9.10
2015,01,16,11,46,9.10
2015,01,16,11,47,9.10
2015,01,16,11,48,9.10
2015,01,16,11,49,9.20
2015,01,16,11,50,9.20
2015,01,16,11,51,9.20
2015,01,16,11,52,9.20
2015,01,16,11,53,9.20
2015,01,16,11,54,9.20
2015,01,16,11,55,9.30
2015,01,16,11,56,9.30
2015,01,16,11,57,9.30
2015,01,16,11,58,9.30
2015,01,16,11,59,9.30
2015,01,16,12,00,9.30
2015,01,16,12,01,9.40
2015,01,16,12,02,9.40
2015,01,16,12,03,9.40
2015,01,16,12,04,9.40
2015,01,16,12,05,9.40
2015,01,16,12,06,9.40
2015,01,16,12,07,9.40
2015,01,16,12,08,9.40
2015,01,16,12,09,9.50
2015,01,16,12,10,9.50
2015,01,16,12,11,9.40
2015,01,16,12,12,9.50
2015,01,16,12,13,9.50
2015,01,16,12,14,9.60
2015,01,16,12,15,9.60
2015,01,16,12,16,9.60
2015,01,16,12,17,9.60
2015,01,16,12,18,9.60
2015,01,16,12,19,9.60
2015,01,16,12,20,9.60
2015,01,16,12,21,9.60
2015,01,16,12,22,9.60
2015,01,16,12,23,9.60
2015,01,16,12,24,9.60
2015,01,16,12,25,9.60
2015,01,16,12,26,9.60
2015,01,16,12,33,9.60
2015,01,16,12,34,9.60
2015,01,16,12,35,9.60
2015,01,16,12,36,9.60
2015,01,16,12,37,9.60
2015,01,16,12,38,9.60
2015,01,16,12,39,9.60
2015,01,16,12,40,9.60
2015,01,16,12,41,9.60
2015,01,16,12,42,9.60
2015,01,16,12,43,9.60
2015,01,16,12,44,9.60
2015,01,16,12,45,9.60
2015,01,16,12,46,9.60
2015,01,16,12,47,9.60
2015,01,16,12,48,9.60
2015,01,16,12,49,9.70
2015,01,16,12,50,9.70
2015,01,16,12,51,9.70
2015,01,16,12,52,9.80
2015,01,16,12,53,9.80
2015,01,16,12,54,9.80
2015,01,16,12,55,9.90
2015,01,16,12,56,9.80
2015,01,16,12,57,9.80
2015,01,16,12,58,9.90
2015,01,16,12,59,9.90
2015,01,16,13,00,9.90
2015,01,16,13,01,9.90
2015,01,16,13,02,9.90
2015,01,16,13,03,9.90
2015,01,16,13,04,9.90
2015,01,16,13,05,9.90
2015,01,16,13,06,10.00
2015,01,16,13,07,10.00
2015,01,16,13,08,10.00
2015,01,16,13,09,10.10
2015,01,16,13,10,10.10
2015,01,16,13,11,10.10
2015,01,16,13,12,10.20
2015,01,16,13,13,10.20
2015,01,16,13,14,10.10
2015,01,16,13,15,10.10
2015,01,16,13,16,10.10
2015,01,16,13,17,10.10
2015,01,16,13,18,10.00
2015,01,16,13,19,10.00
2015,01,16,13,20,10.00
2015,01,16,13,21,10.00
2015,01,16,13,22,10.00
2015,01,16,13,23,10.00
2015,01,16,13,24,10.00
2015,01,16,13,25,9.90
2015,01,16,13,26,9.90
2015,01,16,13,27,9.90
2015,01,16,13,28,9.90
2015,01,16,13,29,9.80
2015,01,16,13,30,9.80
2015,01,16,13,31,9.80
2015,01,16,13,32,9.80
2015,01,16,13,33,9.80
2015,01,16,13,34,9.80
2015,01,16,13,35,9.80
2015,01,16,13,36,9.80
2015,01,16,13,37,9.80
2015,01,16,13,38,9.90
2015,01,16,13,39,9.90
2015,01,16,13,40,9.90
2015,01,16,13,41,9.90
2015,01,16,13,42,9.90
2015,01,16,13,43,9.90
2015,01,16,13,44,9.90
2015,01,16,13,45,9.90
2015,01,16,13,46,9.80
2015,01,16,13,47,9.90
2015,01,16,13,48,9.80
2015,01,16,13,49,9.80
2015,01,16,13,50,9.80
2015,01,16,13,51,9.80
2015,01,16,13,52,9.80
2015,01,16,13,53,9.80
2015,01,16,13,54,9.90
2015,01,16,13,55,9.90
2015,01,16,13,56,9.90
2015,01,16,13,57,9.90
2015,01,16,13,58,9.90
2015,01,16,13,59,9.90
2015,01,16,14,00,9.90
2015,01,16,14,01,9.90
2015,01,16,14,02,9.80
2015,01,16,14,03,9.80
2015,01,16,14,04,9.80
2015,01,16,14,05,9.80
2015,01,16,14,06,9.80
2015,01,16,14,07,9.80
2015,01,16,14,08,9.80
2015,01,16,14,09,9.80
2015,01,16,14,10,9.80
2015,01,16,14,11,9.80
2015,01,16,14,12,9.80
2015,01,16,14,13,9.70
2015,01,16,14,14,9.70
2015,01,16,14,15,9.70
2015,01,16,14,16,9.70
2015,01,16,14,17,9.70
2015,01,16,14,18,9.70
2015,01,16,14,19,9.70
2015,01,16,14,20,9.70
2015,01,16,14,21,9.70
2015,01,16,14,22,9.70
2015,01,16,14,23,9.70
2015,01,16,14,24,9.70
2015,01,16,14,25,9.70
2015,01,16,14,26,9.70
2015,01,16,14,27,9.70
